This is the latest recevied weather packets stored in our database for station/object N0QV. If no packets are shown the sender has not sent any weather packets the latest 10 day(s).
| Time | Temp. | Humidity | Pressure | Rain* | Wind** | Luminosity | Snow |
|---|---|---|---|---|---|---|---|
| 1788643192 | 27.78° C | 78% | 1015.2 hPa | 0 mm | - | 253 W/m² | - |
| 1788642888 | 27.78° C | 78% | 1015.2 hPa | 0 mm | - | 131 W/m² | - |
| 1788642583 | 27.78° C | 79% | 1015.3 hPa | 0 mm | - | 200 W/m² | - |
| 1788642278 | 27.78° C | 78% | 1015.3 hPa | 0 mm | - | 216 W/m² | - |
| 1788641978 | 27.78° C | 78% | 1015.2 hPa | 0 mm | - | 391 W/m² | - |
| 1788641673 | 27.78° C | 78% | 1015.1 hPa | 0 mm | - | 252 W/m² | - |
| 1788641372 | 27.78° C | 78% | 1015.2 hPa | 0 mm | - | 211 W/m² | - |
| 1788641068 | 27.78° C | 78% | 1015 hPa | 0 mm | - | 201 W/m² | - |
| 1788640766 | 28.33° C | 76% | 1015.4 hPa | 0 mm | - | 220 W/m² | - |
| 1788640462 | 28.33° C | 76% | 1015.4 hPa | 0 mm | - | 293 W/m² | - |
| 1788640158 | 27.78° C | 77% | 1015.4 hPa | 0 mm | - | 406 W/m² | - |
| 1788639853 | 27.78° C | 78% | 1015.7 hPa | 0 mm | - | 439 W/m² | - |
| 1788639548 | 27.78° C | 78% | 1015.7 hPa | 0 mm | - | 382 W/m² | - |
| 1788639244 | 27.22° C | 80% | 1015.4 hPa | 0 mm | - | 391 W/m² | - |
| 1788638943 | 27.22° C | 79% | 1015.3 hPa | 0 mm | - | 367 W/m² | - |
| 1788638639 | 27.22° C | 80% | 1015.4 hPa | 0 mm | - | 304 W/m² | - |
| 1788638337 | 27.22° C | 80% | 1015.4 hPa | 0 mm | - | 278 W/m² | - |
| 1788638033 | 27.22° C | 81% | 1015.4 hPa | 0 mm | - | 340 W/m² | - |
| 1788637729 | 26.67° C | 81% | 1015.2 hPa | 0 mm | - | 283 W/m² | - |
| 1788637428 | 26.67° C | 81% | 1015.4 hPa | 0 mm | - | 301 W/m² | - |
| 1788637128 | 26.67° C | 81% | 1015.5 hPa | 0 mm | - | 337 W/m² | - |
| 1788636822 | 26.67° C | 82% | 1015.5 hPa | 0 mm | - | 385 W/m² | - |
| 1788636518 | 26.67° C | 82% | 1015.5 hPa | 0 mm | - | 383 W/m² | - |
| 1788636214 | 26.11° C | 83% | 1015.3 hPa | 0 mm | - | 336 W/m² | - |
| 1788635913 | 25.56° C | 83% | 1015.8 hPa | 0 mm | - | 283 W/m² | - |
* Rain latest hour (hover to see other rain measurements)
** Current wind speed in m/s (hover to see current wind gust speed)